Regional Weather Roundup
Issued by NWS Charleston, WV

Home | Current Version | Previous Version | Text Only | Print | Product List | Glossary Off
Versions: 1 2 3 4 5 6 7 8 9 10 11 12 13 14 15 16 17 18 19 20 21 22 23 24 25 26 27 28 29 30 31 32 33 34 35 36 37 38 39 40 41 42 43 44 45 46 47 48 49 50

000
ASUS41 KRLX 290010
RWRRLX
West Virginia Regional Weather Roundup
National Weather Service Charleston WV
800 PM EDT MON JUL 28 2014

Note: "fair" indicates few or no clouds below 12,000 feet with no
significant weather and/or obstructions to visibility.

WVZ003-290100-
Northern Panhandle of West Virginia

CITY           SKY/WX    TMP DP  RH WIND       PRES   REMARKS
WHEELING       CLEAR     64  51  62 NW12      29.92S
$$

WVZ009-290100-
Northwest West Virginia

CITY           SKY/WX    TMP DP  RH WIND       PRES   REMARKS
PARKERSBURG    PTCLDY   N/A N/A N/A N5        29.95R
$$

WVZ006-290100-
Western West Virginia

CITY           SKY/WX    TMP DP  RH WIND       PRES   REMARKS
HUNTINGTON     MOCLDY    66  64  93 CALM      29.94S
$$

WVZ015-290100-
West Central West Virginia

CITY           SKY/WX    TMP DP  RH WIND       PRES   REMARKS
CHARLESTON     MOCLDY    68  63  84 W6        29.93S
$$

WVZ031-290100-
North Central West Virginia

CITY           SKY/WX    TMP DP  RH WIND       PRES   REMARKS
CLARKSBURG     CLEAR     65  55  70 N8        29.92R
MORGANTOWN     MOCLDY    66  53  63 N9G16     29.93R
$$

WVZ035-042-045-290100-
South Central West Virginia

CITY           SKY/WX    TMP DP  RH WIND       PRES   REMARKS
BECKLEY        CLOUDY    61  58  90 NW6       29.99R
BLUEFIELD      CLOUDY    64  54  69 NW7       30.00R
LEWISBURG      MOCLDY    66  55  67 W5        29.96R
$$

WVZ047-290100-
Northern Mountains of West Virginia

CITY           SKY/WX    TMP DP  RH WIND       PRES   REMARKS
ELKINS         CLOUDY    61  56  83 N7        29.94R
$$

WVZ052-290100-
Eastern Panhandle of West Virginia

CITY           SKY/WX    TMP DP  RH WIND       PRES   REMARKS
MARTINSBURG    CLOUDY    71  58  63 NW8       29.81R
PETERSBURG     PTCLDY    67  51  56 NW8       29.87R
$$



USA.gov is the U.S. government's official web portal to all federal, state and local government web resources and services.